Location: The Saddle
(36.8333°N, 80.3417°W)
Time: 04:55:57
(UTC-04:00)

Tiros 1 - Pass Details

Date: 25 January 2022
Orbit: 630 x 663 km, 48.4° (Epoch: 29 May)

Event Time Altitude Azimuth Distance (km) Brightness Sun altitude
Exits shadow 05:29:11 68° 210° (SSW) 697 7.1 -23.9°
Drops below altitude 10° 05:33:44 10° 137° (SE) 2,024 10.3 -23.0°
Sets 05:36:03 0° 134° (SE) 2,925 11.3 -22.5°
